#timestamp,LO_Frequency,Hit,StdDev 
1608922815.2,286047001.6,P
1608922835.0,286047001.5,P
1608922836.0,286047001.5,P
1608922855.8,286047004.2,Y
1608922875.6,286047002.1,P
1608922895.4,286047002.6,P
1608922915.3,286047002.4,P
1608922935.1,286047001.5,Y
1608922955.8,286047002.4,P
1608922975.7,286046999.7,P
1608922995.5,286047000.0,N
1608923015.3,286047002.7,N
1608923035.2,286047002.1,N
1608923055.0,286047004.3,Y
1608923055.9,286047004.3,P
1608923075.7,286047002.2,N
1608923095.6,286047001.4,N
1608923115.4,286047001.9,N
1608923135.2,286047001.9,N
1608923155.1,286047004.4,Y
1608923156.0,286047004.4,P
1608923175.8,286047002.6,N
1608923195.6,286047002.7,N
1608923215.5,286047001.9,N
1608923235.3,286047001.7,N
1608923255.1,286046999.7,N
1608923275.9,286047002.8,N
1608923295.7,286047002.3,N
1608923315.5,286047002.8,N
1608923335.4,286047002.8,N
1608923355.2,286047002.8,N
1608923375.0,286047002.2,N
1608923375.9,286047002.2,N
1608923395.8,286047002.6,N
1608923415.6,286047001.5,N
1608923435.4,286047004.2,Y
1608923455.3,286046999.7,P
1608923475.1,286047001.6,N
1608923476.0,286047001.6,N
1608923495.8,286047001.7,N
1608923515.7,286047002.0,N
1608923535.5,286047001.7,N
1608923555.3,286047003.2,Y
1608923575.2,286047002.4,P
1608923595.9,286047000.9,N
1608923615.7,286046999.8,N
1608923635.6,286047001.7,N
1608923655.4,286047001.3,N
1608923675.2,286047003.7,Y
1608923695.1,286047002.0,P
1608923696.0,286047002.0,P
1608923715.8,286047002.1,P
1608923735.6,286047001.9,Y
1608923755.5,286047000.9,P
1608923775.3,286047000.4,N
1608923795.1,286047002.8,P
1608923815.9,286047002.4,N
1608923835.7,286047001.7,N
1608923855.5,286047002.0,N
1608923875.4,286047001.8,N
1608923895.2,286047001.5,N
1608923915.0,286047001.3,N
1608923915.9,286047001.3,N
1608923935.8,286047002.7,Y
1608923955.6,286047000.9,P
1608923975.4,286047000.2,N
1608923995.3,286047000.1,N
1608924015.1,286047001.3,N
1608924016.0,286047001.3,N
1608924035.8,286047001.8,Y
1608924055.7,286047000.0,P
1608924075.5,286047002.6,P
1608924095.3,286047002.7,N
1608924115.1,286047002.2,N
1608924135.9,286047004.0,Y
1608924155.7,286046999.7,P
1608924175.5,286047000.0,N
1608924195.4,286047000.5,N
1608924215.2,286047000.0,N
1608924235.0,286047000.1,N
1608924235.9,286047000.1,N
1608924255.8,286047002.3,Y
1608924275.6,286047000.2,P
1608924295.4,286047001.9,P
1608924315.3,286047001.8,N
1608924335.1,286047001.4,N
1608924355.8,286047004.2,Y
1608924375.7,286046999.8,P
1608924395.5,286047001.0,N
1608924415.3,286047001.2,N
1608924435.2,286047000.3,N
1608924455.0,286047000.8,N
1608924455.9,286047000.8,N
1608924475.7,286047000.7,N
1608924495.6,286046998.5,Y
1608924515.4,286047000.7,P
1608924535.2,286047001.2,P
1608924555.1,286046999.4,N
1608924556.0,286046999.4,N
1608924575.8,286046997.2,Y
1608924595.6,286046995.1,P
1608924615.5,286046995.9,N
1608924635.3,286046996.2,N
1608924655.1,286046995.6,N
1608924675.9,286046995.1,N
1608924695.7,286046996.1,N
1608924715.5,286046995.9,N
1608924735.4,286046995.9,N
1608924755.2,286046995.6,N
1608924775.0,286046996.3,N
1608924775.9,286046996.3,N
1608924795.8,286046993.9,Y
1608924815.6,286046996.8,P
1608924835.4,286046993.8,P
1608924855.3,286046995.0,P
1608924875.1,286046995.7,Y
1608924876.0,286046995.7,P
1608924895.8,286046998.5,P
1608924915.7,286047001.2,N
1608924935.5,286046999.0,N
1608924955.3,286046998.5,N
1608924975.2,286047000.6,N
1608924995.9,286047000.5,N
1608925015.7,286046998.2,N
1608925035.6,286047000.7,N
1608925055.4,286047001.1,N
1608925075.2,286047000.6,N
1608925095.0,286046998.1,N
1608925096.0,286046998.1,N
1608925115.8,286046998.5,N
1608925135.6,286046998.3,N
1608925155.4,286046998.6,N
1608925175.3,286046998.8,N
1608925195.1,286046999.0,N
1608925215.8,286046999.5,N
1608925235.7,286046997.1,N
1608925255.5,286046998.0,N
1608925275.3,286046997.8,N
1608925295.2,286046997.6,N
1608925315.0,286046994.9,Y
1608925315.9,286046994.9,P
1608925335.7,286046996.7,N
1608925355.6,286046997.5,N
1608925375.4,286046999.6,N
1608925395.2,286046997.5,N
1608925415.1,286046995.3,Y
1608925416.0,286046995.3,P
1608925435.8,286046998.5,N
1608925455.6,286046998.9,N
1608925475.5,286046999.4,N
1608925495.3,286046996.6,N
1608925515.1,286046996.9,N
1608925535.9,286046997.0,N
1608925555.7,286046996.8,N
1608925575.5,286046995.1,Y
1608925595.4,286046998.6,P
1608925615.2,286046998.8,N
1608925635.0,286046999.1,N
1608925635.9,286046999.1,N
1608925655.8,286046998.6,N
1608925675.6,286046998.9,N
1608925695.4,286046996.5,Y
1608925715.3,286046998.6,P
1608925735.1,286046998.9,P
1608925736.0,286046998.9,P
1608925755.8,286046999.3,Y
1608925775.7,286047001.1,P
1608925795.5,286046998.3,N
1608925815.3,286046999.3,N
1608925835.2,286046997.0,N
1608925855.9,286046997.2,N
1608925875.7,286046997.0,N
1608925895.6,286046995.6,Y
1608925915.4,286046996.7,P
1608925935.2,286046997.2,P
1608925955.1,286046997.6,P
1608925956.0,286046997.6,Y
1608925975.8,286046998.4,P
1608925995.6,286046998.5,P
1608926015.5,286046998.4,P
1608926035.3,286046998.4,Y
1608926055.1,286047002.1,P
1608926075.9,286047002.4,N
1608926095.7,286046999.7,N
1608926115.5,286047000.4,N
1608926135.4,286047002.8,N
1608926155.2,286047000.7,N
1608926175.0,286047000.4,N
1608926175.9,286047000.4,N
1608926195.8,286047000.9,N
1608926215.6,286047000.5,N
1608926235.4,286047000.1,N
1608926255.2,286046998.5,N
1608926275.1,286046998.9,N
1608926276.0,286046998.9,N
1608926295.8,286047000.7,N
1608926315.6,286047001.2,N
1608926335.5,286046998.1,N
1608926355.3,286046998.7,N
1608926375.1,286046998.3,N
1608926395.9,286046999.1,N
